Location: B?dimalle
(17.1788°N, 80.5377°E)
Time: 12:55:54
(UTC+00:00)

Courier 1B Rocket - Pass Details

Date: 13 December 2025
Orbit: 920 x 1201 km, 28.2° (Epoch: 25 January)

Event Time Altitude Azimuth Distance (km) Brightness Sun altitude
Rises 12:32:15 0° 209° (SSW) 4,019 9.1 -6.7°
Reaches altitude 10° 12:35:49 10° 194° (SSW) 3,089 8.2 -7.5°
Maximum altitude 12:41:23 21° 148° (SSE) 2,371 6.9 -8.7°
Drops below altitude 10° 12:46:59 10° 102° (ESE) 3,124 7.1 -10.0°
Enters shadow 12:47:56 - 97° (E) 3,353 7.3 -10.2°
